Location: Ernez
(36.4595°N, 29.8755°E)
Time: 09:08:54
(UTC+00:00)

SPOT 1/Viking Rocket - Pass Details

Date: 13 November 2025
Orbit: 773 x 788 km, 98.2° (Epoch: 05 December)

Event Time Altitude Azimuth Distance (km) Brightness Sun altitude
Rises 15:56:50 0° 153° (SSE) 3,245 6.6 -13.0°
Reaches altitude 10° 15:59:11 10° 148° (SSE) 2,324 5.8 -13.5°
Maximum altitude 16:04:09 52° 73° (ENE) 967 3.6 -14.4°
Drops below altitude 10° 16:09:10 10° 358° (N) 2,348 5.9 -15.4°
Sets 16:11:32 0° 354° (N) 3,282 6.7 -15.9°
